Regional Weather Roundup
Issued by NWS

Home | Current Version | Previous Version | Graphics & Text | Print | Product List | Glossary On
Versions: 1 2 3 4 5 6 7 8 9 10 11 12 13 14 15 16 17 18 19 20 21 22 23 24 25 26 27 28 29 30 31 32 33 34 35 36 37 38 39 40 41 42 43 44 45 46 47 48 49 50
000
ASUS43 KDTX 290601
RWRMI
MICHIGAN HOURLY REGIONAL WEATHER ROUNDUP
NATIONAL WEATHER SERVICE DETROIT/PONTIAC MI
200 AM EDT FRI APR 29 2016

NOTE: "FAIR" INDICATES FEW OR NO CLOUDS BELOW 12,000 FEET WITH NO
SIGNIFICANT WEATHER AND/OR OBSTRUCTION TO VISIBILITY.

MIZ047>049-052>055-059>063-066>070-074>076-081>083-290700-
SOUTHEAST LOWER MICHIGAN

CITY           SKY/WX    TMP DP  RH WIND       PRES   REMARKS
ADRIAN         CLOUDY    46  36  68 NE6       30.00F
6HR MIN TEMP:  46; 6HR MAX TEMP:  47; 6HR PCP: TRACE;

ALMA           CLOUDY    40  34  81 NE5       30.05F
ANN ARBOR      CLOUDY    46  30  53 NE5       30.00F
BAD AXE        CLOUDY    40  35  83 N3        30.05F
CARO           CLOUDY    39  33  77 N3        30.04F
DETROIT CITY   CLOUDY    45  29  53 NE8       30.03S
6HR MIN TEMP:  45; 6HR MAX TEMP:  49;

DETROIT        CLOUDY    47  31  53 N6        30.02S
6HR MIN TEMP:  47; 6HR MAX TEMP:  49; 6HR PCP: TRACE;

FLINT          CLOUDY    45  31  58 NE8       30.05S
6HR MIN TEMP:  45; 6HR MAX TEMP:  49;

GROSSE ILE     CLOUDY    46  37  71 NE8       30.00S
HILLSDALE      CLOUDY    45  35  67 NE3       30.00R
6HR MIN TEMP:  44; 6HR MAX TEMP:  46;

HOWELL         CLOUDY    44  30  59 NE5       30.01F

CITY           SKY/WX    TMP DP  RH WIND       PRES   REMARKS
JACKSON        CLOUDY    45  35  68 E8        30.00F
6HR MIN TEMP:  44; 6HR MAX TEMP:  46; 6HR PCP:  0.01;

LAMBERTVILLE   CLOUDY    48  35  60 E6        30.00S
6HR MIN TEMP:  48; 6HR MAX TEMP:  49;

LANSING        CLOUDY    42  34  73 NE7       30.03F
6HR MIN TEMP:  42; 6HR MAX TEMP:  45;

LAPEER         CLOUDY    41  32  70 CALM      30.03F
6HR MIN TEMP:  41; 6HR MAX TEMP:  46;

MASON          CLOUDY    43  32  64 NE6       30.01F
MONROE         CLOUDY    46  37  70 NE5       30.00F
6HR MIN TEMP:  46; 6HR MAX TEMP:  48;

MT. CLEMENS    CLOUDY    43  31  63 N5        30.02S
6HR MIN TEMP:  43; 6HR MAX TEMP:  47;

PONTIAC        CLOUDY    44  28  53 NE7       30.01F
6HR MIN TEMP:  44; 6HR MAX TEMP:  47;

PORT HOPE        N/A     41  36  82 E5        30.05S
6HR MIN TEMP:  40; 6HR MAX TEMP:  41;

PORT HURON     CLOUDY    43  36  75 NW3       30.04S
TRI CITIES     CLOUDY    43  34  70 NE6       30.06F
6HR MIN TEMP:  42; 6HR MAX TEMP:  43;

MIDLAND        CLOUDY    39  32  74 CALM      30.06F
6HR MIN TEMP:  39; 6HR MAX TEMP:  40;

TROY           CLOUDY    46  29  52 NE7       30.04S
SAGINAW HB     CLOUDY    41  32  70 N7        30.05F
$$
MIZ043>046-050>051-056>058-064>065-071>073-077>080-290700-
SOUTHWEST LOWER MICHIGAN

CITY           SKY/WX    TMP DP  RH WIND       PRES   REMARKS
BATTLE CREEK   CLOUDY    44  37  76 NE6       30.01F
6HR MIN TEMP:  44; 6HR MAX TEMP:  46;

BENTON HARBOR  CLOUDY    47  39  74 E8        30.00S
6HR MIN TEMP:  47; 6HR MAX TEMP:  52; 6HR PCP: TRACE;

BIG RAPIDS     CLOUDY    40  28  60 E7        30.04F
6HR MIN TEMP:  40; 6HR MAX TEMP:  41;

COLDWATER      CLOUDY    46  36  68 E5        30.00S
6HR MIN TEMP:  46; 6HR MAX TEMP:  47;

FREMONT        CLOUDY    40  32  74 E10       30.04F WCI  34
HOLLAND        CLOUDY    43  38  82 E7        30.03S
6HR MIN TEMP:  42; 6HR MAX TEMP:  44; 6HR PCP:  0.03;

GRAND RAPIDS   CLOUDY    42  35  76 NE8       30.03S
6HR MIN TEMP:  42; 6HR MAX TEMP:  44; 6HR PCP: TRACE;

IONIA          CLOUDY    40  34  81 NE5       30.03S
6HR MIN TEMP:  40; 6HR MAX TEMP:  43;

KALAMAZOO      CLOUDY    47  34  60 CALM      30.02R
6HR MIN TEMP:  46; 6HR MAX TEMP:  47;

LUDINGTON      CLOUDY    42  32  69 E3        30.06S
6HR MIN TEMP:  41; 6HR MAX TEMP:  44;

MARSHALL       CLOUDY    45  37  75 CALM      30.00S
6HR MIN TEMP:  45; 6HR MAX TEMP:  45;

MOUNT PLEASANT CLOUDY    38  31  75 N5        30.05F WCI  35
6HR MIN TEMP:  38; 6HR MAX TEMP:  40;

MUSKEGON       CLOUDY    43  33  68 E9        30.03F
6HR MIN TEMP:  43; 6HR MAX TEMP:  43;

SOUTH HAVEN    CLOUDY    46  40  80 E5        30.01S
$$
MIZ016>042-290700-
NORTHERN LOWER MICHIGAN

CITY           SKY/WX    TMP DP  RH WIND       PRES   REMARKS
ALPENA         CLOUDY    36  27  69 CALM      30.10S
6HR MIN TEMP:  34; 6HR MAX TEMP:  43;

BEAVER ISLAND  PTCLDY    38  27  63 E5        30.10F WCI  35
6HR MIN TEMP:  37; 6HR MAX TEMP:  43;

BELLAIRE       CLOUDY    45  21  39 CALM      30.08S
6HR MIN TEMP:  45; 6HR MAX TEMP:  51;

CADILLAC       CLOUDY    38  34  83 CALM      30.04F
CHARLEVOIX     CLOUDY    42  22  44 E6        30.11F
FRANKFORT      CLOUDY    42  32  67 E3        30.08S
GAYLORD        PTCLDY    41  17  38 E3        30.06F
6HR MIN TEMP:  41; 6HR MAX TEMP:  47;

GRAYLING       CLOUDY    40  19  42 E5        30.07S
6HR MIN TEMP:  40; 6HR MAX TEMP:  46;

HARBOR SPRINGS PTCLDY    36  22  56 CALM      30.09S
HOUGHTON LAKE  CLOUDY    40  25  55 NE5       30.06S
6HR MIN TEMP:  39; 6HR MAX TEMP:  41; 6HR PCP: TRACE;

MANISTEE       CLOUDY    43  30  61 CALM      30.07F
OSCODA         CLOUDY    42  31  64 NE10      30.07S
6HR MIN TEMP:  40; 6HR MAX TEMP:  44;

PELLSTON       PTCLDY    28  22  78 CALM      30.11R
6HR MIN TEMP:  28; 6HR MAX TEMP:  46;

ROGERS CITY    CLOUDY    30  27  90 CALM      30.12R
TRAVERSE CITY  CLOUDY    42  38  85 CALM      30.06S
6HR MIN TEMP:  42; 6HR MAX TEMP:  47; 6HR PCP:  0.01;

$$
MIZ007>008-015-290700-
EASTERN UPPER MICHIGAN

CITY           SKY/WX    TMP DP  RH WIND       PRES   REMARKS
KINROSS          N/A     36  30  80 CALM      30.11S
6HR MIN TEMP:  36; 6HR MAX TEMP:  46;

MACKINAC ISLAN PTCLDY    36  19  50 NE6       30.10S WCI  32
6HR MIN TEMP:  36; 6HR MAX TEMP:  42;

NEWBERRY       PTCLDY    35  30  82 CALM      30.11S
6HR MIN TEMP:  35; 6HR MAX TEMP:  47;

S. S. MARIE    CLOUDY    37  30  75 CALM      30.11S
6HR MIN TEMP:  35; 6HR MAX TEMP:  48;

MUNISING         N/A     33  29  85 S3        30.11F
6HR MIN TEMP:  33; 6HR MAX TEMP:  40;

$$
MIZ004>006-011>014-085-290700-
CENTRAL UPPER MICHIGAN

CITY           SKY/WX    TMP DP  RH WIND       PRES   REMARKS
MANISTIQUE     CLOUDY    37  28  72 N3        30.10S
6HR MIN TEMP:  36; 6HR MAX TEMP:  45;

ESCANABA       CLOUDY    43  27  52 N7        30.10F
6HR MIN TEMP:  43; 6HR MAX TEMP:  48;

MENOMINEE      CLOUDY    43  27  52 NE7       30.09S
6HR MIN TEMP:  43; 6HR MAX TEMP:  43;

SAWYER-GWINN   CLOUDY    35  27  72 NE5       30.11R WCI  31
6HR MIN TEMP:  32; 6HR MAX TEMP:  37;

$$
MIZ001>003-009>011-084-290700-
WESTERN UPPER MICHIGAN

CITY           SKY/WX    TMP DP  RH WIND       PRES   REMARKS
IRON MOUNTAIN  CLOUDY    40  25  55 CALM      30.09S
6HR MIN TEMP:  40; 6HR MAX TEMP:  49;

HOUGHTON       PTCLDY    31  27  85 CALM      30.12S
6HR MIN TEMP:  29; 6HR MAX TEMP:  41;

COPPER HARBOR    N/A     33  28  81 W3        30.12F
6HR MIN TEMP:  32; 6HR MAX TEMP:  39;

IRONWOOD       PTCLDY    34  27  75 CALM      30.08S
6HR MIN TEMP:  34; 6HR MAX TEMP:  43;

$$

ABBREVIATIONS USED IN REMARKS
   TC - TEMPERATURE IN CELSIUS
  WCI - WIND CHILL INDEX
   HX - HEAT INDEX
  VSB - VISIBILITY





USA.gov is the U.S. government's official web portal to all federal, state and local government web resources and services.